Observations for Trim Market St
| Time | AQI | Temp °C | Hum % | Pres Pa | CO μg/m³ | H₂S μg/m³ | NO μg/m³ | NO₂ μg/m³ | O₃ μg/m³ | SO₂ μg/m³ | PM1 μg/m³ | PM2.5 μg/m³ | PM10 μg/m³ |
|---|---|---|---|---|---|---|---|---|---|---|---|---|---|
| Friday 10 July 2026 | |||||||||||||
| 10:30 | 1 | 32.8 | 38 | 65,858 | 0 | 0 | 0 | 7.29 | 23.83 | 0 | 2.14 | 5.09 | 5.6 |
| 10:29 | 1 | 32.8 | 38 | 65,827 | 0.22 | 3.54 | 0 | 6.99 | 28.41 | 1.02 | 1.43 | 4.56 | 5.01 |
| 10:28 | 1 | 32.7 | 38 | 65,821 | 0.24 | 1.53 | 0 | 7.02 | 34.8 | 2.07 | 2.14 | 5.09 | 5.6 |
| 10:27 | 1 | 32.7 | 38 | 65,815 | 0 | 0 | 0 | 1.73 | 23.36 | 0 | 2.14 | 5.63 | 5.89 |
| 10:26 | 1 | 32.7 | 38 | 65,807 | 0 | 0 | 0 | 4.63 | 23.78 | 0 | 2.14 | 5.09 | 5.6 |
| 10:25 | 1 | 32.7 | 38 | 65,827 | 0 | 0 | 0 | 5.84 | 30.76 | 0 | 1.43 | 5.1 | 5.61 |
| 10:24 | 1 | 32.8 | 38 | 65,847 | 0 | 0 | 0 | 0 | 30.1 | 0 | 2.14 | 5.1 | 5.61 |
| 10:23 | 1 | 32.8 | 38 | 65,851 | 0 | 0 | 0 | 1.31 | 36.25 | 0 | 0.71 | 4.04 | 4.44 |
| 10:22 | 1 | 32.8 | 38 | 65,860 | 0 | 0 | 0 | 0 | 37.47 | 0 | 2.14 | 5.1 | 5.61 |
| 10:21 | 1 | 32.8 | 38 | 65,866 | 0 | 0 | 0 | 0.61 | 28.29 | 0 | 1.43 | 4.57 | 5.02 |
| 10:20 | 1 | 32.8 | 38 | 65,847 | 0 | 0 | 0 | 3.13 | 29.47 | 0 | 2.14 | 5.1 | 5.61 |
| 10:18 | 1 | 32.8 | 38 | 65,849 | 0 | 0 | 0 | 2.85 | 29.47 | 0 | 2.14 | 5.11 | 5.62 |
| 10:13 | 1 | 33.2 | 37 | 65,993 | 0 | 0 | 0 | 0 | 16.63 | 0 | 2.14 | 5.68 | 5.88 |
| 10:08 | 1 | 33.8 | 36 | 66,100 | 0 | 0 | 0 | 0 | 23.64 | 0 | 2.14 | 4.65 | 5.04 |
| 10:06 | 1 | 34.2 | 36 | 66,182 | 0 | 0 | 0 | 0 | 13.22 | 0 | 0.71 | 4.13 | 4.54 |
| 10:03 | 1 | 34.6 | 35 | 66,250 | 0 | 0 | 0 | 7.51 | 8.33 | 0 | 2.14 | 5.22 | 5.86 |
| 10:02 | 1 | 34.7 | 35 | 66,236 | 0 | 0 | 0 | 0 | 20 | 0 | 2.14 | 5.76 | 5.86 |
| 10:01 | 1 | 34.8 | 36 | 66,248 | 0 | 0 | 0 | 0 | 0 | 0 | 2.85 | 8.41 | 10.02 |
| 09:59 | 1 | 35 | 36 | 66,264 | 0 | 0 | 0 | 0 | 15.87 | 0 | 2.14 | 4.68 | 5.15 |
| 09:57 | 1 | 35 | 36 | 66,292 | 0 | 0 | 0 | 0 | 0 | 0 | 1.43 | 4.66 | 5.13 |